Torna al catalogo

O3B FM8

AttivoComunicazioniMEO
NORAD 40082·PAYLOAD·🇱🇺 Luxembourg

Lanciato Jul 10, 2014 da Guiana Space Centre

Loading…

Prossimi Passaggi (prossime 24 ore)

TLE

AggiornatoSource: CelesTrak SupGP

Epoca: Sep 13, 2026, 13:59 UTC

1 40082C 14038D   26256.58333333  .00000000  00000+0  00000+0 0  2566
2 40082   0.0450 352.2255 0002758 180.4796   6.7580  5.00116259    12

Traccia O3B FM8 in tempo reale con AllMySat

Download on the App Store